Location: Hradec Kralove
(50.2170°N, 15.8330°E)
Time: 02:02:17
(UTC+02:00)

ISS - Visible Passes

Search period start: 17 October 2019 00:00
Search period end: 27 October 2019 00:00
Orbit: 411 x 421 km, 51.6° (Epoch: 16 October)

Date Brightness Start Highest point End Pass type
(mag) Time Alt. Az. Time Alt. Az. Time Alt. Az.
24 Oct -0.9 06:50:29 10° S 06:52:52 18° SE 06:55:16 10° E visible
25 Oct -0.7 06:03:07 10° SSE 06:04:31 12° SE 06:05:54 10° ESE visible
26 Oct -2.2 06:49:02 10° SW 06:52:10 36° SSE 06:55:17 10° E visible
